This demonstration page uses our WeatherBlox Daily Observations layout. Learn more.

Left ArrowRight Arrow

34.02893, -84.19858

Hourly Observations for January 13, 2018

Temp ( °F °C ) Dew Point ( °F °C ) Humidity (%) Winds ( mph kmh ) Pressure ( in mb ) Visibility ( mi km ) Precip ( " mm )
12:53 am 00:53 Cloudy 27 -2.8 19 -7.2 72 72 NW 15 24 29.97 1015 10 16 0.00 0.00
1:53 am 01:53 Cloudy 27 -2.8 19 -7.2 72 72 NW 15 24 29.99 1016 10 16 0.00 0.00
2:53 am 02:53 Cloudy 27 -2.8 20 -6.7 75 75 NW 18 30 30.01 1016 10 16 0.00 0.00
3:53 am 03:53 Cloudy 28 -2.2 20 -6.7 72 72 WNW 16 26 30.04 1017 10 16 0.00 0.00
4:53 am 04:53 Cloudy 28 -2.2 20 -6.7 72 72 NW 20 31 30.08 1019 10 16 0.00 0.00
5:53 am 05:53 Cloudy 28 -2.2 21 -6.1 75 75 NW 21 33 30.10 1019 10 16 0.00 0.00
6:53 am 06:53 Cloudy 28 -2.2 21 -6.1 75 75 NW 20 31 30.14 1021 10 16 0.00 0.00
7:53 am 07:53 Cloudy 29 -1.7 21 -6.1 72 72 NW 22 35 30.17 1022 10 16 0.00 0.00
8:53 am 08:53 Cloudy 29 -1.7 21 -6.1 72 72 NW 17 28 30.21 1023 10 16 0.00 0.00
9:53 am 09:53 Mostly Cloudy 30 -1.1 21 -6.1 69 69 NW 17 28 30.24 1024 10 16 0.00 0.00
10:53 am 10:53 Mostly Cloudy 31 -0.6 21 -6.1 67 67 NW 20 31 30.28 1026 10 16 0.00 0.00
11:51 am 11:51 Mostly Sunny 32 0 21 -6 64 64 NNW 12 19 30.30 1026 10 16 0.00 0.00
11:53 am 11:53 Mostly Sunny 32 0 22 -5.6 66 66 NNW 16 26 30.31 1026 10 16 0.00 0.00
12:28 pm 12:28 Mostly Cloudy 34 1.1 23 -5 64 64 NW 14 22 30.30 1026 10 16 0.00 0.00
12:53 pm 12:53 Mostly Cloudy 34 1.1 23 -5 64 64 NNW 15 24 30.29 1026 10 16 0.00 0.00
1:39 pm 13:39 Partly Cloudy 33 0.6 22 -5.6 64 64 NW 20 31 30.30 1026 10 16 0.00 0.00
1:53 pm 13:53 Mostly Sunny 34 1.1 22 -5.6 61 61 NW 14 22 30.30 1026 10 16 0.00 0.00
2:53 pm 14:53 Sunny 34 1.1 21 -6.1 59 59 NW 14 22 30.32 1027 10 16 0.00 0.00
3:53 pm 15:53 Sunny 33 0.6 20 -6.7 58 58 NW 18 30 30.33 1027 10 16 0.00 0.00
4:53 pm 16:53 Sunny 31 -0.6 19 -7.2 61 61 NNW 16 26 30.35 1028 10 16 0.00 0.00
5:53 pm 17:53 Clear 28 -2.2 17 -8.3 63 63 NW 15 24 30.37 1029 10 16 0.00 0.00
6:53 pm 18:53 Clear 27 -2.8 16 -8.9 63 63 NW 17 28 30.40 1030 10 16 0.00 0.00
7:53 pm 19:53 Clear 26 -3.3 15 -9.4 63 63 NW 16 26 30.43 1031 10 16 0.00 0.00
8:53 pm 20:53 Clear 26 -3.3 15 -9.4 63 63 NW 17 28 30.44 1031 10 16 0.00 0.00
9:53 pm 21:53 Clear 24 -4.4 15 -9.4 68 68 NW 16 26 30.46 1031 10 16 0.00 0.00
10:53 pm 22:53 Clear 23 -5 14 -10 68 68 NW 14 22 30.48 1032 10 16 0.00 0.00
11:53 pm 23:53 Clear 22 -5.6 14 -10 71 71 NW 10 17 30.49 1032 10 16 0.00 0.00

Powered by AerisWeather